Flag for Austria Weather past 2 weeks in Klagenfurt, Carinthia, Austria

Now
90 °F

Scattered clouds.


Feels Like: 88 °F
Forecast: 68 / 92 °F
Wind: 3 mph from North

Location: Klagenfurt-Flughafen

Current Time: Jul 6, 2015 at 2:29:23 PM

Latest Report: Jul 6, 2015 at 1:50 PM


Visibility: N/A

Pressure: 30.09 "Hg

Humidity: 33%

Dew point: 57 °F

Location of KlagenfurtLocation

Historic Weather in Klagenfurt — Graph

°F

Klagenfurt temperature yesterday

Maximum temperature yesterday: 91 °F (at 3:20 PM)
Minimum temperature yesterday: 64 °F (at 4:20 AM)
Average temperature yesterday: 78 °F

Past Weeks' High & Low Weather Summary

 TemperatureHumidityPressure
High91 °F (Jul 5, 3:20 PM)100% (Jun 23, 10:50 PM)30.36 "Hg (Jun 23, 10:50 PM)
Low46 °F (Jun 25, 4:50 AM)24% (Jul 5, 5:50 PM)29.77 "Hg (Jun 23, 4:20 AM)
Average68 °F66%30.14 "Hg
* Reported Jun 21 1:20 PM — Jul 6 1:20 PM, Klagenfurt, Weather by CustomWeather, © 2015

Note: Actual official high and low records may vary slightly from our data, if they occured in-between our weather recording intervals... More about our weather records

Advertising

Klagenfurt weather history for previous 24 hours

 ConditionsComfort  
Time TempWeatherWind HumidityBarometerVisibility
1:20 PM
Mon, Jul 6
88 °FScattered clouds.5 mph35%30.12 "HgN/A
12:50 PM86 °FPartly sunny.3 mph46%30.12 "HgN/A
12:20 PM86 °FPartly sunny.2 mph40%30.12 "HgN/A
11:50 AM86 °FPartly sunny.3 mph46%30.12 "HgN/A
11:20 AM84 °FPartly sunny.3 mph51%30.15 "HgN/A
10:50 AM84 °FPartly sunny.5 mph51%30.15 "HgN/A
10:20 AM82 °FBroken clouds.3 mph51%30.15 "HgN/A
9:50 AM81 °FPartly sunny.3 mph54%30.15 "HgN/A
9:20 AM77 °FPartly sunny.5 mph54%30.15 "HgN/A
8:50 AM75 °FPartly sunny.3 mph57%30.15 "HgN/A
8:20 AM73 °FScattered clouds.5 mph57%30.12 "HgN/A
7:50 AM72 °FScattered clouds.6 mph69%30.12 "HgN/A
7:20 AM70 °FScattered clouds.5 mph69%30.12 "HgN/A
6:50 AM68 °FScattered clouds.7 mph73%30.12 "HgN/A
6:20 AM66 °FSunny.6 mph78%30.09 "Hg10 mi
5:50 AM64 °FClear.6 mph83%30.09 "Hg10 mi
5:20 AM66 °FMild.3 mph73%30.09 "HgN/A
4:50 AM66 °FMild.5 mph78%30.09 "HgN/A
4:20 AM66 °FMild.5 mph78%30.09 "HgN/A
3:50 AM66 °FMild.5 mph73%30.09 "HgN/A
3:20 AM68 °FMild.3 mph73%30.09 "HgN/A
2:50 AM68 °FMild.5 mph73%30.09 "HgN/A
2:20 AM68 °FMild.6 mph69%30.09 "HgN/A
1:50 AM70 °FMild.3 mph64%30.09 "HgN/A
1:20 AM70 °FMild.5 mph69%30.09 "HgN/A
12:50 AM70 °FMild.6 mph64%30.09 "HgN/A
12:20 AM72 °FMild.6 mph65%30.09 "HgN/A
11:50 PM
Sun, Jul 5
72 °FMild.5 mph61%30.09 "HgN/A
11:20 PM73 °FClear.5 mph61%30.09 "Hg10 mi
10:50 PM75 °FClear.2 mph57%30.09 "Hg10 mi
10:20 PM77 °FClear.3 mph51%30.09 "Hg10 mi
9:50 PM77 °FPassing clouds.3 mph51%30.09 "HgN/A
9:20 PM79 °FSunny.5 mph45%30.07 "Hg10 mi
8:50 PM81 °FSunny.1 mph42%30.07 "Hg10 mi
8:20 PM81 °FPassing clouds.2 mph45%30.07 "HgN/A
7:50 PM88 °FPassing clouds.1 mph25%30.07 "HgN/A
7:20 PM88 °FPassing clouds.5 mph25%30.07 "HgN/A
6:50 PM90 °FPassing clouds.6 mph26%30.07 "HgN/A
6:20 PM91 °FPassing clouds.6 mph26%30.07 "HgN/A
5:50 PM91 °FPassing clouds.6 mph24%30.07 "HgN/A
5:20 PM91 °FPassing clouds.5 mph26%30.07 "HgN/A
4:50 PM91 °FPassing clouds.5 mph26%30.07 "HgN/A
4:20 PM91 °FPassing clouds.3 mph28%30.07 "HgN/A
3:50 PM90 °FPassing clouds.6 mph29%30.09 "HgN/A
3:20 PM91 °FPassing clouds.5 mph28%30.09 "HgN/A
2:50 PM90 °FPassing clouds.5 mph31%30.09 "HgN/A
2:20 PM90 °FPassing clouds.5 mph29%30.12 "HgN/A
Weather by CustomWeather, © 2015

See weather overviewHow to use our weather pages